Location: Colle San Luigi
(43.5500°N, 13.4167°E)
Time: 00:23:59
(UTC+00:00)

CZ-2C R/B - Pass Details

Date: 09 April 2020
Orbit: 639 x 705 km, 98.4° (Epoch: 02 June)

Event Time Altitude Azimuth Distance (km) Brightness Sun altitude
Rises 18:48:54 0° 17° (NNE) 3,077 7.2 -12.2°
Reaches altitude 10° 18:51:13 10° 21° (NNE) 2,147 6.4 -12.6°
Maximum altitude 18:55:51 59° 101° (E) 789 3.8 -13.3°
Drops below altitude 10° 19:00:21 10° 181° (S) 2,090 6.0 -14.1°
Sets 19:02:34 0° 185° (S) 2,987 6.9 -14.4°
